Location: Oberwangen
(47.4286°N, 8.9679°E)
Time: 09:31:23
(UTC+00:00)

Cosmos 1703 - Pass Details

Date: 20 June 2021
Orbit: 522 x 540 km, 82.5° (Epoch: 04 August)

Event Time Altitude Azimuth Distance (km) Brightness Sun altitude
Exits shadow 22:08:01 33° 131° (SE) 919 4.0 -17.0°
Maximum altitude 22:09:04 41° 93° (E) 798 3.9 -17.1°
Drops below altitude 10° 22:12:49 10° 23° (NNE) 1,811 6.7 -17.2°
Sets 22:15:04 0° 16° (NNE) 2,709 7.8 -17.4°
